RESOURCESAT-2

Last updated on Mon Jul 07 2025 00:02:28 GMT+0000 (Coordinated Universal Time)

1 37387U 11015A 25187.57850656 .00000050 00000+0 43333-4 0 9995 2 37387 98.8076 251.6494 0006851 127.8432 232.3366 14.21578376737079
UTC large
Height (km)
Speed (km/s)
/
Latitude / Longitude
Inclination (degrees)
Orbital Period (minutes)
Azimuth
Elevation
Range (km)
Doppler Factor

Next 0 passes for location: London (51.5072 / 0.1276)

Sorry there are no passes over London.